Regional Weather Roundup
Issued by NWS Wakefield, VA

Home | Current Version | Previous Version | Graphics & Text | Print | Product List | Glossary On
Versions: 1 2 3 4 5 6 7 8 9 10 11 12 13 14 15 16 17 18 19 20 21 22 23 24 25 26 27 28 29 30 31 32 33 34 35 36 37 38 39 40 41 42 43 44 45 46 47 48 49 50
000
ASUS41 KAKQ 020615
RWRAKQ

REGIONAL WEATHER ROUNDUP
NATIONAL WEATHER SERVICE WAKEFIELD VA
200 AM EDT MON MAY 02 2016

Note: "fair" indicates few or no clouds below 12,000 feet with no
significant weather and/or obstructions to visibility. * = Denotes
station may not report precipitation (e.g., rain,snow,etc.),
thunder or fog.

VAZ042-051-052>054-056-020700-
NORTHERN VIRGINIA

CITY           SKY/WX    TMP DP  RH WIND       PRES   REMARKS
WASH NATIONAL  LGT RAIN  56  54  93 SE6       30.00F
DULLES         CLOUDY    55  54  96 NE3       29.99F
FORT BELVOIR   CLOUDY    56  54  95 VRB1      29.98F
QUANTICO       CLOUDY    58  56  93 E5        29.99F
FREDERICKSBRG* CLOUDY    59  59 100 CALM      29.97S
STAFFORD*      MOCLDY    56  55  95 CALM      30.02S
WARRENTON      CLOUDY    58  54  86 CALM      29.97F
CULPEPER*      CLOUDY    58  58  99 CALM      29.99F
MANASSAS*      CLOUDY    55  55 100 NE3       29.98F
LEESBURG*      LGT RAIN  55  55 100 E3        29.98F
WINCHESTER     CLOUDY    55  55 100 SE3       29.97S FOG
FRONT ROYAL*   CLOUDY    55  55 100 CALM      29.95F
LURAY*         FAIR      55  55 100 E3        29.96F
$$

VAZ048-049-060>072-079>083-020700-
CENTRAL AND SOUTH CENTRAL VIRGINIA

CITY           SKY/WX    TMP DP  RH WIND       PRES   REMARKS
RICHMOND       TSTM      63  62  97 N5        29.98S VSB 3/4
CHESTERFIELD*  MOCLDY    63  52  67 S6        29.97F
PETERSBURG*    MOCLDY    66  66 100 CALM      29.99S
HANOVER        RAIN      61  59  93 E8        29.97F FOG
TAPPAHANNOCK*  RAIN      60  60 100 N5        30.00S
QUINTON*       CLOUDY    64  64 100 CALM      29.98S FOG
CHARLOTTSVILLE CLOUDY    61  60  97 CALM      29.97F
GORDONSVILLE*  CLOUDY    59  59 100 E3        29.96F
ORANGE*        CLOUDY    59  59 100 CALM      29.98F FOG
LOUISA*        CLOUDY    64  64 100 N3        29.95F
BUMPASS*       CLOUDY    60  60 100 E5        29.95F
FARMVILLE*     MOCLDY    63  63 100 SW3       29.96S
CREWE*         MOCLDY    62  62 100 CALM      29.97F
FORT PICKETT*  NOT AVBL
CHASE CITY*    CLOUDY    65  64  94 SE6       29.98F
CLARKSVILLE*   MOCLDY    64  64 100 CALM      29.98S
SOUTH HILL*    FAIR      64  64 100 S6        30.04F
LAWRENCEVILLE* MOCLDY    64  64 100 CALM      29.99S
EMPORIA*       MOCLDY    63  63 100 SE3       30.00F
$$

VAZ088>098-020700-
SOUTHEAST VIRGINIA

CITY           SKY/WX    TMP DP  RH WIND       PRES   REMARKS
NORFOLK        CLOUDY    68  64  87 S10       30.00S
VIRGINIA BEACH CLOUDY    70  64  81 S6        30.00S
NORFOLK NAVAL  CLOUDY    69  65  86 S9        30.01S
WEST POINT*    MOCLDY    61  60  98 CALM      29.99F
SALUDA*        FAIR      60  60 100 CALM      29.98F
NEWPORT NEWS   MOCLDY    67  65  93 S9        29.99F
LANGLEY AFB    FAIR      67  65  92 SW9       29.99F
FORT EUSTIS    MOCLDY    67  66  98 S7        29.97F
WILLIAMSBURG*  FAIR      66  66 100 S5        30.00S
HR EXEC AP*      N/A     66  64  94 S6        30.03S
FRANKLIN*      CLOUDY    65  64  94 CALM      30.01S
US460-WAKEFLD  MOCLDY    67  64  90 S5        29.99F
$$

VAZ020-022-025-037-045-020700-
WEST CENTRAL AND SOUTHWEST VIRGINIA

CITY           SKY/WX    TMP DP  RH WIND       PRES   REMARKS
STAUNTON*      FAIR      60  60 100 CALM      29.99R FOG
WAYNESBORO*    FAIR      56  56  97 MISG      29.98S
HOT SPRINGS VA MOCLDY    60  50  69 SW8       30.03S
LYNCHBURG      LGT RAIN  60  60 100 SW3       29.99S
DANVILLE       LGT RAIN  66  65  96 NE3       29.98R
SOUTH BOSTON*  CLOUDY    65  64  95 CALM      29.98S
MARTINSVILLE   FAIR      63  62  99 CALM      30.02R
ROANOKE        CLOUDY    61  60  97 N3        30.00S
BLACKSBURG     CLOUDY    60  60  99 NW3       30.05S
DUBLIN*        CLOUDY    60  60 100 CALM      30.03F
MARION*        CLOUDY    66  62  86 W10       30.06R
HILLSVILLE*    FAIR      62  62  99 S5        30.04S
RICHLANDS*     MOCLDY    61  44  53 SW5       30.03S
WISE*          MOCLDY    61  61 100 SW7       30.04R
ABINGDON*      CLOUDY    68  64  85 W5        30.02S
$$

MDZ021>025-VAZ099-100-020700-
SOUTHERN MARYLAND AND THE DELMARVA PENINSULA

CITY           SKY/WX    TMP DP  RH WIND       PRES   REMARKS
PATUXENT RIVER CLOUDY    56  55  97 NE5       30.00F FOG
BAY BRIDGE APT NOT AVBL
LEONARDTOWN    CLOUDY    55  54  94 N3        30.01F
DOVER          CLOUDY    54  54 100 E6        30.00F
GEORGETOWN     FOG       52  52 100 NE7       30.03R VSB 1
EASTON         CLOUDY   N/A N/A N/A SE5       30.04F FOG
CAMBRIDGE      CLOUDY    52  52 100 CALM      30.01F
SALISBURY      CLOUDY    54  54 100 E5        30.01S FOG
OCEAN CITY     CLOUDY    53  52  96 NE6       30.02S
WALLOPS ISLAND CLOUDY    56  54  93 NE9       30.01F
ACCOMACK*      MOCLDY    55   1  11 CALM      30.00S
$$

NCZ012>017-030>032-020700-
NORTH CENTRAL AND EASTERN NORTH CAROLINA

CITY           SKY/WX    TMP DP  RH WIND       PRES   REMARKS
ROANOKE RAPIDS FAIR      64  64 100 S5        30.00F
RALEIGH        CLOUDY    68  64  87 SW12      29.99S
ELIZABETH CITY MOCLDY    66  64  93 S6        30.02S
AHOSKIE*       CLOUDY    64  63  98 CALM      30.01F
EDENTON*       MOCLDY    67  67 100 S6        30.02F
CURRITUCK*     CLOUDY    67  66  97 SW3       30.03R
KILL DEVIL HLS MOCLDY    68  65  91 SW7       30.01F
MANTEO         NOT AVBL
CAPE HATTERAS  CLOUDY    69  66  90 SW7       30.05S
TARBORO*       MOCLDY    67  66  96 CALM      30.01F
GOLDSBORO      CLOUDY    68  68 100 S3        30.00F
WASHINGTON     CLOUDY    66  65  96 S3        30.02F
GREENVILLE     CLOUDY    68  68 100 S9        30.03F FOG
NEW BERN       CLOUDY    67  65  93 S3        30.04F
WILMINGTON     CLOUDY    66  65  96 CALM      30.04S
$$

VAZ048-020700-
ELSEWHERE

CITY           SKY/WX    TMP DP  RH WIND       PRES   REMARKS
HARRISBURG PA  CLOUDY    52  50  93 E6        29.99F FOG
BALTIMORE      CLOUDY    54  53  97 NE7       29.99S FOG
ANNAPOLIS      LGT RAIN  54  54 100 SE6       30.00F
ANDREWS AFB    CLOUDY    54  54 100 SE5       29.98F
PHILADELPHIA   CLOUDY    49  46  90 E8        30.04S
HENDERSON NC   CLOUDY    65  65 100 SW3       29.99S
GREENSBORO     NOT AVBL
ROCKY MOUNT    CLOUDY    68  66  93 S7        30.00S
$$

VAZ100-020700-
MARINE

STATION/POSITION TIME  TEMP    WIND        PRES    WAVE   SWELL
                       AIR SEA DIR/SP/G            HT/PER HT/PER
                 (UTC) (F)     (DEG/KT/KT) (MB)    (FT/S) (FT/S)
BRANDYWINE LGT   0500   52      70/  5/  6 1016.8F
CAPE MAY NJ      0500   51 57   60/  3/  7 1016.6F
LEWES DE         0500   52 55   80/  9/ 11 1016.7F
15NM E FENWICK I 0550   51 51              1016.3F   4/ 8
OCEAN-CITY-INLET 0500   53 56   40/  3/  5 1015.8F
WACHAPREAGUE VA  0500   57 60   40/  6/  8 1015.6F
THOMAS POINT MD  0600   54 57  130/  5/  6 1017.4S
GOOSES REEF MD   0600   55 57   60/ 14/ 41 1017.0F   1
COVE POINT MD    0500   55      60/  4/  4 1017.0S
SOLOMONS ISLAND  0500   56 59   70/  4/  5   N/A
BISHOPS HEAD MD  0500   56 58   70/  5/  8 1015.4S
PINEY POINT MD   0500           90/  4/  5   N/A
POTOMAC MD       0600   57 58   80/  8/ 10 1014.4F   0
CAMBRIDGE MD     0500   54 60   60/  6/  7 1015.4F
LEWISETTA VA     0500   58 59   60/  5/  8 1015.8S
RAPPAHANNOCK LGT 0500          150/  4/  5 1016.2F
STINGRAY PT      0500   61 60  150/  4/  4 1016.0F   0
YORK RVR RNG VA  0500   63     170/  2/  2 1015.1F
YORKTOWN VA      0500   62 62  140/  1/  2 1015.3F
JAMESTOWN VA     0600   68 65  190/  8/ 12   N/A     0
DOMINION TERM VA 0500   67     200/  8/  9 1015.9F
KIPTOPEKE VA     0500      60  160/  6/  6   N/A
CHES BAY BRIDGE  0500   67 61  170/  8/ 10 1015.6S
CAPE HENRY VA    0500   68     180/  7/  9   N/A
CHESAPEAKE LGHT  0500   63     190/ 17/ 18 1016.6F
WILLOUBY STN VA  0500   68     180/  9/  9 1016.7F
CAPE HENRY BUOY  0512      56                N/A     3/ 8
CAPE CHARLES BUO 0526      58                N/A     3/10   2/10
OFFSHORE WE BUOY 0521      54                N/A     4/10   3/10
64NM E OF VA BCH 0550   57 53  210/  8/ 10 1016.2F   5/ 9   5/ 9
DUCK PIER NC     0500   68 66  180/  8/ 10 1016.2F
44100 DUCK FRF   0524      56                N/A     3/ 9   2/11
44056 DUCK FRF   0511      58                N/A     3/10
OREGON INLET NC  0500   69 67  190/  7/  8 1017.0F
HATTERAS NC      0500   70 67  200/  6/ 10 1017.3F
DIAMOND SHLS NC  0550   74 73  210/ 14/ 16 1017.3F   6/10   3/10
CAPE LOOKOUT NC  0500   69     210/  4/  4 1017.3R
$$



USA.gov is the U.S. government's official web portal to all federal, state and local government web resources and services.